Location: Cerro Blanco
(33.5559°S, 71.3834°W)
Time: 21:06:54
(UTC+00:00)

Daily predictions for brighter satellites

Satellite Brightness Start Highest point End
(mag) Time Altitude Azimuth Time Altitude Azimuth Time Altitude Azimuth
Cosmos 2034 Rocket 4.1 22:55:03 10° S 23:01:25 66° E 23:07:46 10° NNE
Okean 2 Rocket 3.8 22:59:38 10° SSW 23:04:11 62° W 23:08:40 10° N
YAOGAN 1 4.4 23:03:43 10° ESE 23:05:02 11° E 23:06:21 10° ENE
Iridium 4 Rocket 4.5 23:01:15 10° SSW 23:05:21 45° W 23:09:37 10° NNW
Cosmos 1842 4.0 23:05:41 10° NNE 23:09:14 32° E 23:12:49 10° SSE
AQUARIUS 4.2 23:06:24 10° SSE 23:10:59 90° WSW 23:15:30 10° NNW
Cosmos 1378 Rocket 3.7 23:09:33 10° N 23:13:55 82° W 23:18:25 10° S
Hubble Space Telescope 1.6 23:10:27 10° WNW 23:14:21 39° N 23:18:16 10° ENE
Cosmos 923 Rocket 4.3 23:11:19 10° N 23:16:16 46° ENE 23:21:19 10° SSE
CZ-2D R/B 4.4 23:14:24 10° SE 23:17:34 23° E 23:20:42 10° NNE
CZ-4 R/B 2.7 23:16:21 10° SE 23:19:30 20° E 23:22:39 10° NE
IRS-1C Rocket 4.5 23:15:00 10° SSE 23:20:00 41° E 23:24:57 10° N
Cosmos 1437 3.4 23:20:34 10° NNE 23:23:14 29° E 23:25:56 10° SSE
Okean-O 3.4 23:23:59 10° SE 23:27:54 29° E 23:31:45 10° NNE
Cosmos 1634 Rocket 4.2 23:23:04 10° S 23:29:05 46° E 23:34:59 10° NNE
Aureole 2 Rocket 4.1 23:27:43 10° SW 23:30:33 32° WNW 23:33:26 10° NNW
SL-16 R/B 2.4 23:25:09 10° NNW 23:30:48 78° WSW 23:36:32 10° SSE
Cosmos 1943 Rocket 3.5 23:29:19 10° S 23:33:31 21° ESE 23:36:09 15° E
CZ-2C R/B 4.0 23:32:10 10° SE 23:35:49 21° E 23:39:30 10° NE
Cosmos 1733 3.1 23:35:28 10° S 23:39:25 77° E 23:43:17 10° N
Cosmos 1340 Rocket 2.7 23:35:34 10° S 23:39:31 60° E 23:43:24 10° NNE
ATLAS 5 CENTAUR R/B 3.9 23:39:48 10° SSE 23:41:52 12° SE 23:43:29 11° ESE
Cosmos 158 Rocket 3.7 23:38:03 10° N 23:42:55 70° ENE 23:47:49 10° SSE
Cosmos 1025 Rocket 4.1 23:45:42 20° ENE 23:46:58 23° E 23:50:29 10° SE
Cosmos 1943 3.9 23:46:14 10° NNE 23:51:08 30° ENE 23:56:05 10° SE
CZ-2C R/B 4.3 23:47:40 15° NE 23:51:09 40° ESE 23:55:39 10° S
Cosmos 1805 4.4 23:48:22 10° SSW 23:52:09 45° W 23:55:54 10° NNW
Okean 2 4.0 23:48:40 10° NNW 23:52:44 59° W 23:56:50 10° S
Okean O Rocket 4.3 23:50:56 10° SSW 23:54:26 23° WSW 23:57:56 10° WNW
